[[{"header":{"parameterUnit":"m.s-1","parameterCategory":1,"la1":30.2991,"la2":30.254,"lo1":-89.0895,"lo2":-89.0444,"dy":0.0017,"dx":0.0017,"nx":28,"ny":28,"refTime":"2026-01-06T03:00:00:Z","depth":0,"parameterNumber":2,"parameterNumberName":"U-component_of_WINDS"},"data":[0,0,0,0,0,0,0,0,0,0,0,0,0,0,0,0,0,0,0,0,0,0,0,0,0,0,0,0,0,0,0,0,0,0,0,0,0,0,0,0,0,0,0,0,0,0,0,0,0,0,0,0,0,0,0,0,0,0,-2.3637,-2.3637,0,-2.3641,-2.3641,-2.3641,-2.3562,-2.356,-2.3558,-2.3556,-2.3563,-2.3565,-2.3567,0,0,0,0,0,0,0,0,0,0,0,0,0,-2.3566,-2.3567,-2.3637,-2.3637,-2.3637,-2.3641,-2.3641,-2.3641,-2.3562,-2.356,-2.3557,-2.3555,-2.3562,-2.3565,-2.3567,0,0,0,0,0,0,0,0,0,0,0,0,0,-2.3586,-2.3568,-2.3637,-2.3598,-2.3595,-2.3641,-2.3641,-2.3641,-2.3563,-2.356,-2.3557,-2.3554,-2.3561,-2.3565,-2.3568,-2.3652,0,0,-2.3578,-2.3579,0,0,0,0,0,0,0,0,-2.3585,-2.3589,-2.3604,-2.3601,-2.3597,-2.3598,-2.3619,-2.3645,-2.3564,-2.3575,-2.3556,-2.3552,-2.3577,-2.3579,-2.3587,-2.3653,-2.3653,-2.3578,-2.358,-2.3581,-2.3582,0,0,0,0,0,0,0,-2.3584,-2.3588,-2.3639,-2.3604,-2.36,-2.3582,-2.3582,-2.3623,-2.3594,-2.3574,-2.3568,-2.357,-2.3575,-2.3584,-2.3587,-2.3653,-2.3578,-2.3581,-2.3583,-2.3584,-2.3792,-2.3796,0,0,0,0,0,0,-2.3587,-2.3588,-2.3638,-2.3639,-2.3583,-2.3586,-2.3585,-2.3601,-2.3594,-2.3589,-2.3572,-2.3566,-2.358,-2.3583,-2.3587,-2.3686,-2.3581,-2.3585,-2.3586,-2.3789,-2.3793,-2.3797,0,0,0,0,0,0,-2.3586,-2.3592,-2.3638,-2.3612,-2.3616,-2.3591,-2.3609,-2.3603,-2.3611,-2.3592,-2.3587,-2.3587,-2.3578,-2.3582,-2.3637,-2.3685,-2.3586,-2.3589,-2.3785,-2.379,-2.3795,-2.3886,0,0,0,0,0,0,-2.3584,-2.3592,-2.3622,-2.3613,-2.3618,-2.3687,-2.3612,-2.3605,-2.3617,-2.3609,-2.3604,-2.3601,-2.3575,-2.3633,-2.364,-2.3688,-2.3592,-2.378,-2.3787,-2.3793,-2.3878,-2.3894,-2.3907,0,0,0,0,0,-2.3582,-2.3648,-2.3624,-2.3631,-2.3655,-2.369,-2.3693,-2.3662,-2.3621,-2.3652,-2.3641,-2.3601,-2.368,-2.3639,-2.3647,-2.3696,-2.3777,-2.3785,-2.3793,-2.3872,-2.3891,-2.3906,0,0,0,0,0,0,-2.3663,-2.3646,-2.3619,-2.3684,-2.3689,-2.3676,-2.3714,-2.3682,-2.3699,-2.3691,-2.3653,-2.3653,-2.3715,-2.3711,-2.3666,-2.378,-2.3721,-2.3731,-2.3779,-2.3796,-2.381,-2.3809,-2.3594,0,0,0,0,0,-2.3689,-2.3718,-2.3701,-2.376,-2.3764,-2.374,-2.3753,-2.373,-2.3734,-2.3735,-2.3728,-2.3734,-2.3761,-2.3779,-2.3802,-2.3879,-2.3878,-2.3918,-2.3932,-2.3943,-2.3952,-2.3995,-2.4013,-2.3823,-2.3823,-2.3823,0,0,-2.3742,-2.3736,-2.3756,-2.3776,-2.3777,-2.381,-2.3741,-2.3778,-2.3802,-2.3741,-2.3792,-2.3788,-2.3793,-2.3861,-2.389,-2.386,-2.4005,-2.3954,-2.3963,-2.3965,-2.4005,-2.4023,-2.4039,-2.3829,-2.3828,-2.3827,0,0,-2.3854,-2.3852,-2.3901,-2.3905,-2.3908,-2.3892,-2.3904,-2.3898,-2.3892,-2.3944,-2.3899,-2.3929,-2.3975,-2.3981,-2.399,-2.4112,-2.4076,-2.4121,-2.4193,-2.4236,-2.4251,-2.4264,-2.4308,-2.4324,-2.413,-2.413,-2.413,0,-2.3919,-2.3964,-2.3931,-2.3971,-2.3983,-2.393,-2.3982,-2.3987,-2.3998,-2.4008,-2.3975,-2.4034,-2.4033,-2.4102,-2.4132,-2.4141,-2.4156,-2.4119,-2.4251,-2.4264,-2.4276,-2.4317,-2.4334,-2.4135,-2.4135,-2.4134,-2.4134,0,-2.4045,-2.4078,-2.4118,-2.413,-2.4146,-2.4192,-2.4168,-2.4189,-2.4165,-2.4154,-2.4209,-2.4208,-2.4231,-2.4246,-2.4223,-2.4313,-2.4295,-2.4258,-2.4197,-2.43,-2.4338,-2.4353,-2.4143,-2.4141,-2.4139,-2.4138,0,0,-2.4203,-2.42,-2.4215,-2.4221,-2.4224,-2.4249,-2.4295,-2.4317,-2.4337,-2.4348,-2.4386,-2.4429,-2.4395,-2.4406,-2.4384,-2.4421,-2.4519,-2.4379,-2.4379,-2.4405,-2.462,-2.4647,-2.4666,-2.4497,-2.45,-2.4502,-2.462,0,-2.4312,-2.4387,-2.4361,-2.4438,-2.447,-2.4423,-2.4463,-2.4471,-2.4463,-2.449,-2.4482,-2.4512,-2.4465,-2.4472,-2.4507,-2.4499,-2.4561,-2.4491,-2.4533,-2.4535,-2.4531,-2.4686,-2.4714,-2.4825,-2.4635,-2.4637,-2.4639,0,-2.4448,-2.4465,-2.4545,-2.4545,-2.4557,-2.4593,-2.4614,-2.464,-2.4649,-2.4641,-2.4656,-2.4627,-2.4674,-2.4617,-2.4683,-2.4635,-2.4652,-2.4652,-2.4655,-2.4656,-2.4591,-2.4691,-2.4859,-2.4876,-2.4662,-2.466,-2.4658,0,-2.4556,-2.4599,-2.4653,-2.466,-2.4662,-2.4688,-2.4691,-2.4696,-2.4713,-2.4732,-2.4743,-2.4768,-2.4782,-2.4803,-2.4783,-2.4743,-2.4853,-2.4793,-2.4848,-2.4849,-2.4871,-2.4869,-2.5044,-2.4884,-2.4884,-2.4884,-2.4884,0,-2.4679,-2.473,-2.4702,-2.4735,-2.4792,-2.4764,-2.4822,-2.482,-2.4826,-2.486,-2.4823,-2.4856,-2.4828,-2.486,-2.4845,-2.4903,-2.491,-2.4906,-2.4901,-2.4908,-2.4908,-2.4916,-2.4908,-2.4888,-2.4887,-2.4886,-2.4886,0,-2.4807,-2.479,-2.4846,-2.4845,-2.4846,-2.4888,-2.4887,-2.4919,-2.4911,-2.4954,-2.4963,-2.495,-2.4985,-2.4969,-2.5006,-2.4996,-2.5071,-2.5056,-2.5067,-2.5063,-2.5119,-2.5114,-2.5303,-2.5327,-2.5154,-2.5155,-2.5157,0,-2.4885,-2.4923,-2.4927,-2.4946,-2.4951,-2.4983,-2.5001,-2.4977,-2.4997,-2.5013,-2.5044,-2.5076,-2.51,-2.516,-2.5155,-2.5184,-2.5169,-2.5234,-2.5173,-2.5181,-2.517,-2.5168,-2.5172,-2.5245,-2.5247,-2.5249,-2.525,0,-2.5027,-2.5018,-2.5043,-2.5068,-2.509,-2.5108,-2.5123,-2.5142,-2.5119,-2.5144,-2.518,-2.5199,-2.5239,-2.5272,-2.5299,-2.5303,-2.5274,-2.527,-2.5285,-2.5291,-2.5296,-2.5294,-2.5099,-2.5265,-2.5264,-2.5263,-2.5262,-2.5261,-2.5132,-2.5165,-2.5173,-2.5204,-2.5214,-2.523,-2.5261,-2.5257,-2.5286,-2.5315,-2.5301,-2.5343,-2.5356,-2.5389,-2.5398,-2.5432,-2.5407,-2.5428,-2.5433,-2.5438,-2.5445,-2.5293,-2.5437,-2.5437,-2.5437,-2.5436,-2.5436,0,-2.5271,-2.5275,-2.5304,-2.5327,-2.5353,-2.5325,-2.5341,-2.5365,-2.5402,-2.5416,-2.5442,-2.5485,-2.5519,-2.5518,-2.555,-2.5578,-2.5566,-2.5587,-2.5584,-2.5586,-2.5466,-2.545,-2.5597,-2.5597,-2.5597,-2.5597,-2.5597,-2.5597,-2.5346,-2.5401,-2.5394,-2.5455,-2.5459,-2.55,-2.5512,-2.5528,-2.5539,-2.5589,-2.5617,-2.5616,-2.5626,-2.5659,-2.5689,-2.5689,-2.5702,-2.5728,-2.5723,-2.561,-2.5594,-2.5579,-2.5564,-2.5732,-2.5732,-2.584,-2.5841,-2.5841]},{"header":{"parameterUnit":"m.s-1","parameterCategory":1,"la1":30.2991,"la2":30.254,"lo1":-89.0895,"lo2":-89.0444,"dy":0.0017,"dx":0.0017,"nx":28,"ny":28,"refTime":"2026-01-06T03:00:00:Z","depth":0,"parameterNumber":3,"parameterNumberName":"V-component_of_WINDS"},"data":[0,0,0,0,0,0,0,0,0,0,0,0,0,0,0,0,0,0,0,0,0,0,0,0,0,0,0,0,0,0,0,0,0,0,0,0,0,0,0,0,0,0,0,0,0,0,0,0,0,0,0,0,0,0,0,0,0,0,1.6729,1.6729,0,1.675,1.6751,1.6751,1.6843,1.6845,1.6847,1.6849,1.6865,1.6864,1.6862,0,0,0,0,0,0,0,0,0,0,0,0,0,1.6763,1.6762,1.6729,1.6729,1.6729,1.675,1.6751,1.6751,1.6842,1.6845,1.6847,1.685,1.6866,1.6864,1.6862,0,0,0,0,0,0,0,0,0,0,0,0,0,1.6762,1.6761,1.6729,1.6778,1.6782,1.675,1.6751,1.6751,1.6842,1.6845,1.6848,1.6851,1.6867,1.6864,1.6862,1.6783,0,0,1.6855,1.6854,0,0,0,0,0,0,0,0,1.6762,1.6761,1.677,1.6774,1.6779,1.6797,1.6769,1.6761,1.6841,1.6819,1.6849,1.6853,1.684,1.684,1.6837,1.6784,1.6784,1.6855,1.6853,1.6852,1.6852,0,0,0,0,0,0,0,1.6762,1.6761,1.6737,1.677,1.6776,1.6797,1.6801,1.6768,1.6811,1.6821,1.6828,1.6829,1.6843,1.6839,1.6838,1.6785,1.6855,1.6853,1.6851,1.685,1.667,1.6666,0,0,0,0,0,0,1.6756,1.676,1.6737,1.6738,1.6779,1.6794,1.6798,1.6788,1.6811,1.6818,1.6827,1.6834,1.6841,1.684,1.6839,1.6749,1.6852,1.685,1.6849,1.6673,1.6669,1.6665,0,0,0,0,0,0,1.6756,1.6753,1.6736,1.6751,1.675,1.679,1.6778,1.6787,1.6783,1.6816,1.6823,1.6815,1.6844,1.6842,1.6797,1.6751,1.6849,1.6847,1.6677,1.6672,1.6667,1.6567,0,0,0,0,0,0,1.6757,1.6753,1.6724,1.675,1.6749,1.6694,1.6775,1.6785,1.6779,1.6789,1.6807,1.6813,1.6846,1.68,1.6795,1.6749,1.6845,1.6681,1.6675,1.6669,1.6575,1.656,1.6546,0,0,0,0,0,1.6758,1.6693,1.6722,1.6718,1.6714,1.6692,1.6691,1.6732,1.6775,1.6746,1.6767,1.6812,1.6757,1.6794,1.6789,1.6742,1.6684,1.6676,1.6669,1.6581,1.6563,1.6547,0,0,0,0,0,0,1.6659,1.6698,1.673,1.6672,1.6678,1.6707,1.6672,1.6711,1.6704,1.6712,1.6762,1.6766,1.6713,1.6723,1.6765,1.6668,1.6728,1.6719,1.6663,1.6646,1.6632,1.663,1.6843,0,0,0,0,0,1.6631,1.661,1.6645,1.659,1.6592,1.6631,1.6623,1.6654,1.6662,1.6664,1.6683,1.6687,1.6671,1.6659,1.6645,1.6577,1.6583,1.6542,1.6528,1.6516,1.6508,1.6473,1.6456,1.664,1.664,1.664,0,0,1.6571,1.659,1.6574,1.6571,1.658,1.6557,1.6633,1.6605,1.6588,1.666,1.6619,1.6632,1.664,1.6584,1.656,1.6591,1.6458,1.6506,1.6497,1.6495,1.6464,1.6446,1.6431,1.6635,1.6636,1.6637,0,0,1.6452,1.6464,1.6421,1.6429,1.6441,1.6468,1.6458,1.6481,1.6494,1.6454,1.6508,1.6488,1.6459,1.6463,1.6461,1.6345,1.6386,1.6339,1.6264,1.623,1.6215,1.6203,1.6162,1.6146,1.633,1.633,1.633,0,1.6376,1.6345,1.6393,1.6363,1.636,1.6426,1.6383,1.6387,1.6393,1.639,1.6425,1.6391,1.6401,1.6347,1.6319,1.6315,1.6304,1.6337,1.6214,1.6202,1.6191,1.6152,1.6136,1.6324,1.6325,1.6326,1.6326,0,1.6252,1.623,1.6193,1.6201,1.6194,1.6156,1.6198,1.6185,1.6217,1.624,1.6199,1.6214,1.6205,1.6195,1.6225,1.6145,1.6164,1.6205,1.6267,1.6166,1.6131,1.6117,1.6316,1.6318,1.632,1.6321,0,0,1.607,1.6106,1.6092,1.6097,1.6116,1.61,1.6065,1.6059,1.6047,1.605,1.6022,1.5997,1.6036,1.6034,1.6066,1.6035,1.5944,1.6081,1.6082,1.6055,1.5857,1.5825,1.5808,1.5971,1.5968,1.5966,1.5856,0,1.5956,1.5902,1.5945,1.5882,1.5862,1.5926,1.5896,1.5904,1.5924,1.591,1.5932,1.5913,1.5966,1.5966,1.5939,1.596,1.5904,1.5969,1.5945,1.5943,1.5941,1.5789,1.5756,1.5651,1.5843,1.584,1.5839,0,1.5817,1.5816,1.5752,1.5778,1.5771,1.5744,1.5742,1.5728,1.5738,1.5755,1.5754,1.5794,1.5761,1.5821,1.5777,1.582,1.5813,1.5822,1.5819,1.5818,1.5885,1.5784,1.5619,1.5603,1.5817,1.5819,1.5821,0,1.5691,1.5674,1.5634,1.5636,1.5664,1.5644,1.5654,1.5669,1.5663,1.5661,1.5658,1.5651,1.5647,1.5641,1.5677,1.5718,1.5628,1.5692,1.5641,1.564,1.5618,1.5619,1.5449,1.5613,1.5614,1.5614,1.5614,0,1.5561,1.5519,1.5578,1.5553,1.5509,1.5558,1.5511,1.5529,1.5541,1.552,1.5573,1.5552,1.5602,1.5585,1.5614,1.5573,1.5571,1.5583,1.5591,1.5578,1.5576,1.5574,1.5582,1.561,1.5611,1.5611,1.5612,0,1.5412,1.545,1.5411,1.5442,1.5449,1.5415,1.5441,1.5419,1.5444,1.5416,1.5412,1.545,1.5434,1.5471,1.5458,1.5478,1.542,1.5439,1.5417,1.5423,1.537,1.5374,1.5192,1.5171,1.5348,1.5346,1.5345,0,1.5327,1.5297,1.5325,1.5316,1.5325,1.5309,1.5304,1.5351,1.5343,1.5354,1.533,1.5319,1.5313,1.5283,1.5309,1.53,1.532,1.5257,1.5319,1.5307,1.5319,1.5321,1.5318,1.5243,1.5241,1.5239,1.5238,0,1.517,1.5191,1.5183,1.5182,1.5175,1.5175,1.5179,1.5168,1.5218,1.5207,1.5192,1.5187,1.5177,1.5164,1.5162,1.5172,1.5212,1.5219,1.5206,1.5193,1.5181,1.5187,1.5382,1.5222,1.5224,1.5225,1.5226,1.5227,1.5051,1.5028,1.5045,1.5034,1.5043,1.5046,1.5027,1.5051,1.504,1.5036,1.5064,1.5044,1.5056,1.5057,1.5063,1.5046,1.5075,1.5057,1.5052,1.5047,1.5039,1.5184,1.5046,1.5046,1.5047,1.5047,1.5047,0,1.4898,1.4913,1.4903,1.4908,1.49,1.4942,1.4949,1.4938,1.492,1.4929,1.4922,1.4905,1.4894,1.4919,1.4912,1.4894,1.4913,1.489,1.4892,1.4894,1.5013,1.5025,1.4875,1.4875,1.4876,1.4876,1.4876,1.4876,1.4818,1.4781,1.4804,1.4772,1.4787,1.4769,1.4769,1.4772,1.4779,1.4759,1.4751,1.4768,1.4784,1.4778,1.4769,1.4777,1.4772,1.4743,1.4757,1.4868,1.4885,1.4901,1.4912,1.4741,1.4741,1.4639,1.4638,1.4637]}]]